Weather History for Pensacola NAS, FL

Change the Weather History Date:

Wednesday, October 3, 2012

  Actual Average Record
Temperature  
Mean Temperature 70 °F -  
Max Temperature 77 °F 80 °F 89 °F (2002)
Min Temperature 62 °F 64 °F 48 °F (2011)
Cooling Degree Days 4    
Growing Degree Days 20 (Base 50)    
Moisture  
Dew Point 62 °F    
Average Humidity 80    
Maximum Humidity 97    
Minimum Humidity 60    
Precipitation  
Precipitation 0.00 in - - ()
Sea Level Pressure  
Sea Level Pressure 30.09 in    
Wind  
Wind Speed 4 mph (NE)    
Max Wind Speed 10 mph    
Max Gust Speed -    
Visibility 10 miles    
Events      
Averages and records for this station are not official NWS values.
T = Trace of Precipitation, MM = Missing Value Source: NWS Daily Summary

Daily Weather History Graph

Daily Weather History Graph

Search for Another Location

Airport:

Trip Planner

Search our weather history database for the weather conditions in past years. The results will help you decide how hot, cold, wet, or windy it might be!

Date:

Astronomy

Oct. 03, 2012 Rise Set
Actual Time 6:44 AM CDT 6:31 PM CDT
Civil Twilight 6:20 AM CDT 6:55 PM CDT
Nautical Twilight 5:52 AM CDT 7:23 PM CDT
Astronomical Twilight 5:24 AM CDT 7:51 PM CDT
Moon 8:40 PM CDT (10/3) 9:50 AM CDT (10/3)
Length of Visible Light 12h 35m
Length of Day
11h 47m
Waning Gibbous, 88% of the Moon is Illuminated
Oct 3
Waning Gibbous
Oct 8
Last Quarter
Oct 15
New
Oct 21
First Quarter
Oct 29
Full

Hourly Weather History & Observations

Time (CDT) Temp. Dew Point Humidity Pressure Visibility Wind Dir Wind Speed Gust Speed Precip Events Conditions
12:56 AM 62.1 °F 60.1 °F 93% 30.02 in 10.0 mi North 3.5 mph - N/A   Clear
1:56 AM 62.1 °F 60.1 °F 93% 30.02 in 10.0 mi Calm Calm - N/A   Clear
2:56 AM 62.1 °F 61.0 °F 96% 30.01 in 10.0 mi NNE 3.5 mph - N/A   Clear
3:56 AM 62.1 °F 60.1 °F 93% 30.02 in 10.0 mi North 3.5 mph - N/A   Clear
4:56 AM 63.0 °F 60.1 °F 90% 30.04 in 10.0 mi Calm Calm - N/A   Clear
5:56 AM 63.0 °F 60.1 °F 90% 30.06 in 10.0 mi North 3.5 mph - N/A   Mostly Cloudy
6:56 AM 63.0 °F 60.1 °F 90% 30.07 in 10.0 mi NNE 4.6 mph - N/A   Mostly Cloudy
7:56 AM 64.9 °F 62.1 °F 90% 30.09 in 10.0 mi NNE 3.5 mph - N/A   Mostly Cloudy
8:56 AM 68.0 °F 63.0 °F 84% 30.11 in 10.0 mi ENE 5.8 mph - N/A   Mostly Cloudy
9:56 AM 72.0 °F 63.0 °F 73% 30.12 in 10.0 mi ENE 10.4 mph - N/A   Mostly Cloudy
10:56 AM 75.9 °F 62.1 °F 62% 30.11 in 10.0 mi ENE 6.9 mph - N/A   Mostly Cloudy
11:56 AM 75.9 °F 63.0 °F 64% 30.11 in 10.0 mi East 9.2 mph - N/A   Mostly Cloudy
12:56 PM 75.9 °F 63.0 °F 64% 30.10 in 10.0 mi East 9.2 mph - N/A   Mostly Cloudy
1:56 PM 75.9 °F 61.0 °F 60% 30.09 in 10.0 mi East 9.2 mph - N/A   Mostly Cloudy
2:56 PM 75.9 °F 63.0 °F 64% 30.09 in 10.0 mi East 8.1 mph - N/A   Mostly Cloudy
3:56 PM 75.0 °F 62.1 °F 64% 30.08 in 10.0 mi East 8.1 mph - N/A   Mostly Cloudy
4:56 PM 77.0 °F 62.1 °F 60% 30.09 in 10.0 mi NE 6.9 mph - N/A   Mostly Cloudy
5:56 PM 75.0 °F 61.0 °F 62% 30.10 in 10.0 mi ENE 4.6 mph - N/A   Mostly Cloudy
6:56 PM 70.0 °F 63.0 °F 78% 30.10 in 10.0 mi Calm Calm - N/A   Mostly Cloudy
7:56 PM 66.0 °F 63.0 °F 90% 30.12 in 10.0 mi Calm Calm - N/A   Mostly Cloudy
8:56 PM 64.9 °F 64.0 °F 97% 30.12 in 10.0 mi Calm Calm - N/A   Mostly Cloudy
9:56 PM 66.9 °F 64.0 °F 90% 30.13 in 10.0 mi NE 5.8 mph - N/A   Scattered Clouds
10:56 PM 69.1 °F 64.9 °F 87% 30.14 in 10.0 mi ENE 6.9 mph - N/A   Scattered Clouds
11:56 PM 68.0 °F 64.9 °F 90% 30.14 in 10.0 mi NE 5.8 mph - N/A   Clear